Home   Weather   Anchorage   Past weeks
Flag for USA

Past Weather in Anchorage, Alaska, USA — Yesterday and Last 2 Weeks

Now
34 °F

Passing clouds.


Feels Like: 29 °F
Forecast: 47 / 32 °F
Wind: 6 mph from Northwest

Location: Lake Hood Seaplane

Current Time: Apr 25, 2019 at 6:17:51 am

Latest Report: Apr 25, 2019 at 4:53 am


Visibility: 10 mi

Pressure: 30.08 "Hg

Humidity: 67%

Dew Point: 24 °F

Location of AnchorageLocation

Past Weather in Anchorage — Graph

°F

Anchorage Temperature Yesterday

Maximum temperature yesterday: 46 °F (at 4:53 pm)
Minimum temperature yesterday: 29 °F (at 3:53 am)
Average temperature yesterday: 36 °F

High & Low Weather Summary for the Past Weeks

 TemperatureHumidityPressure
High51 °F (Apr 10, 2:53 pm)96% (Apr 17, 4:53 pm)30.10 "Hg (Apr 17, 4:53 pm)
Low28 °F (Apr 13, 5:53 am)33% (Apr 24, 4:53 pm)29.12 "Hg (Apr 21, 4:53 pm)
Average37 °F73%29.59 "Hg
* Reported Apr 10 4:53 am — Apr 25 4:53 am, Anchorage. Weather by CustomWeather, © 2019

Note: Actual official high and low records may vary slightly from our data, if they occured in-between our weather recording intervals... More about our weather records

Advertising

Anchorage Weather History for the Previous 24 Hours

Scroll right to see more
 ConditionsComfort  
Time TempWeatherWind HumidityBarometerVisibility
4:53 am
Thu, Apr 25
34 °FPassing clouds.6 mph67%30.08 "Hg10 mi
3:53 am35 °FOvercast.5 mph61%30.09 "Hg10 mi
2:53 am36 °FPassing clouds.6 mph52%30.09 "Hg10 mi
1:53 am37 °FPassing clouds.8 mph60%30.08 "Hg10 mi
12:53 am38 °FClear.8 mph55%30.07 "Hg10 mi
11:53 pm
Wed, Apr 24
39 °FClear.7 mph60%30.07 "Hg10 mi
10:53 pm39 °FPassing clouds.No wind60%30.07 "Hg10 mi
9:53 pm40 °FClear.7 mph63%30.06 "Hg10 mi
8:53 pm41 °FScattered clouds.5 mph58%30.07 "Hg10 mi
7:53 pm41 °FScattered clouds.6 mph58%30.06 "Hg10 mi
6:53 pm42 °FSunny.8 mph51%30.07 "Hg10 mi
5:53 pm43 °FPassing clouds.No wind43%30.08 "Hg10 mi
4:53 pm46 °FSunny.6 mph33%30.07 "Hg10 mi
3:53 pm44 °FOvercast.6 mph47%30.08 "Hg10 mi
2:53 pm44 °FScattered clouds.3 mph43%30.08 "Hg10 mi
1:53 pm42 °FSunny.6 mph49%30.09 "Hg10 mi
12:53 pm39 °FSunny.6 mph55%30.10 "Hg10 mi
11:53 am38 °FSunny.6 mph65%30.09 "Hg10 mi
10:53 am35 °FPassing clouds.6 mph75%30.09 "Hg10 mi
9:53 am34 °FPartly sunny.No wind76%30.08 "Hg10 mi
8:53 am31 °FPartly sunny.No wind79%30.08 "Hg10 mi
7:53 am29 °FSunny.5 mph82%30.06 "Hg10 mi
6:53 am29 °FScattered clouds.3 mph85%30.05 "Hg10 mi
Weather by CustomWeather, © 2019

See weather overview